Weather History for Springfield, VT

Change the Weather History Date:

Sunday, July 21, 2013

  Actual Average Record
Temperature  
Mean Temperature 71 °F 69 °F  
Max Temperature 82 °F 81 °F 96 °F (2011)
Min Temperature 60 °F 57 °F 45 °F (1999)
Degree Days  
Heating Degree Days 0 0  
Month to date heating degree days 9  
Since 1 June heating degree days 105  
Since 1 July heating degree days 9  
Cooling Degree Days 6 5  
Month to date cooling degree days 227 98  
Year to date cooling degree days 340 174  
Since 1 June cooling degree days 316 162  
Growing Degree Days 20 (Base 50)    
Moisture  
Dew Point 61 °F    
Average Humidity 70    
Maximum Humidity 100    
Minimum Humidity 39    
Precipitation  
Precipitation 0.00 in 0.16 in 0.24 in (2003)
Month to date precipitation 3.16 3.00  
Year to date precipitation 21.27 23.16  
Sea Level Pressure  
Sea Level Pressure 29.93 in    
Wind  
Wind Speed 2 mph (NW)    
Max Wind Speed 12 mph    
Max Gust Speed 18 mph    
Visibility 3 miles    
Events Fog    
T = Trace of Precipitation, MM = Missing Value Source: NWS Daily Summary

Daily Weather History Graph

Daily Weather History Graph

Search for Another Location

Airport:

Trip Planner

Search our weather history database for the weather conditions in past years. The results will help you decide how hot, cold, wet, or windy it might be!

Date:

Astronomy

Jul. 21, 2013 Rise Set
Actual Time 5:29 AM EDT 8:23 PM EDT
Civil Twilight 4:55 AM EDT 8:57 PM EDT
Nautical Twilight 4:12 AM EDT 9:39 PM EDT
Astronomical Twilight 3:22 AM EDT 10:29 PM EDT
Moon 7:17 PM EDT (7/21) 4:12 AM EDT (7/21)
Length of Visible Light 16h 01m
Length of Day
14h 54m
Waxing Gibbous, 98% of the Moon is Illuminated
Jul 21
Waxing Gibbous
Jul 22
Full
Jul 29
Last Quarter
Aug 6
New
Aug 14
First Quarter

Hourly Weather History & Observations

Time (EDT) Temp. Heat Index Dew Point Humidity Pressure Visibility Wind Dir Wind Speed Gust Speed Precip Events Conditions
12:15 AM 64.4 °F - 62.6 °F 94% 29.85 in 0.8 mi Calm Calm - N/A   Clear
12:22 AM 64.4 °F - 62.6 °F 94% 29.85 in 1.8 mi Calm Calm - N/A   Clear
12:36 AM 64.4 °F - 62.6 °F 94% 29.85 in 0.8 mi Calm Calm - N/A   Clear
12:46 AM 64.4 °F - 62.6 °F 94% 29.86 in 2.0 mi Calm Calm - N/A   Clear
12:54 AM 64.0 °F - 63.0 °F 96% 29.86 in 3.0 mi Calm Calm - N/A   Clear
12:57 AM 64.4 °F - 62.6 °F 94% 29.86 in 1.8 mi Calm Calm - N/A   Clear
1:09 AM 64.4 °F - 62.6 °F 94% 29.87 in 0.8 mi Calm Calm - N/A   Clear
1:42 AM 62.6 °F - 62.6 °F 100% 29.87 in 2.5 mi Calm Calm - N/A   Clear
1:49 AM 62.6 °F - 62.6 °F 100% 29.87 in 7.0 mi Calm Calm - N/A   Clear
1:54 AM 63.0 °F - 63.0 °F 100% 29.86 in 2.5 mi Calm Calm - N/A   Clear
2:01 AM 64.4 °F - 62.6 °F 94% 29.87 in 1.0 mi Calm Calm - N/A   Clear
2:20 AM 64.4 °F - 62.6 °F 94% 29.88 in 0.8 mi Calm Calm - N/A   Clear
2:31 AM 62.6 °F - 62.6 °F 100% 29.87 in 2.0 mi Calm Calm - N/A   Clear
2:39 AM 62.6 °F - 62.6 °F 100% 29.88 in 1.0 mi Calm Calm - 0.01 in   Clear
2:46 AM 62.6 °F - 62.6 °F 100% 29.88 in 0.8 mi Calm Calm - 0.01 in   Clear
2:54 AM 63.0 °F - 62.1 °F 97% 29.88 in 0.8 mi Calm Calm - 0.01 in   Clear
3:05 AM 62.6 °F - 60.8 °F 94% 29.88 in 1.5 mi Calm Calm - N/A   Clear
3:49 AM 62.6 °F - 60.8 °F 94% 29.90 in 0.8 mi Calm Calm - N/A   Clear
3:54 AM 62.1 °F - 61.0 °F 96% 29.89 in 0.8 mi Calm Calm - N/A   Clear
4:04 AM 60.8 °F - 59.0 °F 94% 29.90 in 1.2 mi Calm Calm - N/A   Clear
4:20 AM 60.8 °F - 60.8 °F 100% 29.90 in 0.8 mi Calm Calm - N/A   Mist
4:27 AM 60.8 °F - 60.8 °F 100% 29.90 in 1.2 mi Calm Calm - N/A   Scattered Clouds
4:37 AM 60.8 °F - 60.8 °F 100% 29.90 in 1.0 mi Calm Calm - N/A   Mostly Cloudy
4:42 AM 60.8 °F - 60.8 °F 100% 29.90 in 0.2 mi Calm Calm - N/A Fog Fog
4:54 AM 61.0 °F - 60.1 °F 97% 29.91 in 0.2 mi Calm Calm - N/A Fog Fog
5:07 AM 60.8 °F - 60.8 °F 100% 29.91 in 0.5 mi Calm Calm - N/A Fog Fog
5:20 AM 60.8 °F - 60.8 °F 100% 29.92 in 0.2 mi Calm Calm - N/A Fog Fog
5:54 AM 60.1 °F - 60.1 °F 100% 29.92 in 0.2 mi Calm Calm - N/A Fog Fog
6:54 AM 61.0 °F - 61.0 °F 100% 29.94 in 0.2 mi Calm Calm - N/A Fog Fog
7:52 AM 64.4 °F - 62.6 °F 94% 29.96 in 0.2 mi Calm Calm - N/A Fog Fog
7:54 AM 64.9 °F - 63.0 °F 93% 29.96 in 0.2 mi Calm Calm - N/A Fog Fog
8:11 AM 64.4 °F - 64.4 °F 100% 29.97 in 0.5 mi Calm Calm - N/A Fog Fog
8:31 AM 66.2 °F - 64.4 °F 94% 29.97 in 0.2 mi Calm Calm - N/A Fog Fog
8:54 AM 70.0 °F - 64.0 °F 81% 29.96 in 0.2 mi Calm Calm - N/A   Haze
9:06 AM 71.6 °F - 62.6 °F 73% 29.96 in 0.8 mi Variable 4.6 mph - N/A   Haze
9:12 AM 71.6 °F - 60.8 °F 69% 29.96 in 2.0 mi West 5.8 mph - N/A   Haze
9:41 AM 73.4 °F - 60.8 °F 65% 29.96 in 10.0 mi Calm Calm - N/A   Clear
9:54 AM 73.9 °F - 60.1 °F 62% 29.96 in 10.0 mi Calm Calm - N/A   Partly Cloudy
10:54 AM 75.0 °F - 57.9 °F 55% 29.97 in 10.0 mi NW 6.9 mph - N/A   Clear
11:54 AM 77.0 °F - 57.0 °F 50% 29.97 in 10.0 mi NW 6.9 mph - N/A   Partly Cloudy
12:54 PM 80.1 °F 79.9 °F 53.1 °F 39% 29.97 in 10.0 mi NW 5.8 mph - N/A   Partly Cloudy
1:54 PM 81.0 °F 80.4 °F 53.1 °F 38% 29.96 in 10.0 mi NW 9.2 mph - N/A   Clear
2:54 PM 80.1 °F 80.1 °F 55.0 °F 42% 29.96 in 10.0 mi WNW 5.8 mph - N/A   Partly Cloudy
3:54 PM 80.1 °F 80.2 °F 55.9 °F 43% 29.96 in 10.0 mi Calm Calm - N/A   Overcast
4:54 PM 80.1 °F 80.6 °F 57.9 °F 47% 29.95 in 10.0 mi Calm Calm - N/A   Mostly Cloudy
5:54 PM 80.1 °F 80.4 °F 57.0 °F 45% 29.95 in 10.0 mi WNW 3.5 mph - N/A   Clear
6:54 PM 79.0 °F - 57.9 °F 48% 29.95 in 10.0 mi Calm Calm - N/A   Scattered Clouds
7:54 PM 73.9 °F - 62.1 °F 66% 29.96 in 10.0 mi Calm Calm - N/A   Partly Cloudy
8:54 PM 70.0 °F - 64.0 °F 81% 29.98 in 10.0 mi Calm Calm - N/A   Clear
9:18 PM 68.0 °F - 62.6 °F 83% 29.99 in 2.0 mi Calm Calm - N/A   Haze
9:26 PM 68.0 °F - 64.4 °F 88% 29.99 in 1.0 mi Calm Calm - N/A   Clear
9:35 PM 66.2 °F - 64.4 °F 94% 30.00 in 0.8 mi Calm Calm - N/A   Clear
9:54 PM 66.0 °F - 63.0 °F 90% 30.00 in 0.8 mi Calm Calm - N/A   Clear
10:01 PM 66.2 °F - 62.6 °F 88% 30.00 in 1.0 mi Calm Calm - N/A   Clear
10:08 PM 66.2 °F - 62.6 °F 88% 30.01 in 0.8 mi Calm Calm - N/A   Clear
10:44 PM 66.2 °F - 62.6 °F 88% 30.01 in 1.0 mi Calm Calm - N/A   Clear
10:54 PM 64.9 °F - 62.1 °F 90% 30.01 in 0.8 mi Calm Calm - N/A   Clear
11:03 PM 64.4 °F - 62.6 °F 94% 30.01 in 1.2 mi Calm Calm - N/A   Clear
11:21 PM 64.4 °F - 62.6 °F 94% 30.01 in 0.8 mi Calm Calm - N/A   Clear
11:54 PM 63.0 °F - 61.0 °F 93% 30.02 in 0.8 mi Calm Calm - N/A   Clear